FBD152 UMMI-UMMS

Flight info

Callsign FBD152
Flight time N/A
Altitude 4000
Route TIWOK LAFAT RUBUN RUDEN NOZBA
Aircraft DA62/L-SDE3FGHIRWY/LB1

Departure

Time 2026-04-17 16:34
Airport Lipki Air Base (UMMI)

Arrival

Time N/A
Airport Minsk National Airport (UMMS)
Time Latitude Longitude Altitude Speed Heading
2026-04-17 16:28 53.91863 27.70832 769 ft 0 kts 289°
2026-04-17 16:30 53.91861 27.70841 769 ft 26 kts 289°
2026-04-17 16:30 53.91843 27.70886 770 ft 0 kts 16°
2026-04-17 16:31 53.91849 27.70889 770 ft 4 kts 17°
2026-04-17 16:31 53.91931 27.70923 773 ft 18 kts 17°
2026-04-17 16:32 53.92040 27.70995 774 ft 8 kts 48°
2026-04-17 16:32 53.92039 27.71035 774 ft 0 kts 113°
2026-04-17 16:33 53.92029 27.71073 774 ft 11 kts 113°
2026-04-17 16:33 53.91980 27.71236 773 ft 12 kts 148°
2026-04-17 16:33 53.91939 27.71199 773 ft 11 kts 198°
2026-04-17 16:34 53.91660 27.71043 772 ft 70 kts 197°
2026-04-17 16:34 53.91614 27.71019 770 ft 74 kts 199°
2026-04-17 16:34 53.91558 27.70987 766 ft 80 kts 197°
2026-04-17 16:34 53.90915 27.70635 770 ft 110 kts 198°
2026-04-17 16:35 53.90203 27.70264 1061 ft 102 kts 199°
2026-04-17 16:35 53.89521 27.69953 1341 ft 102 kts 198°
2026-04-17 16:35 53.88818 27.69696 1694 ft 105 kts 199°
2026-04-17 16:35 53.88123 27.69398 1974 ft 94 kts 250°
2026-04-17 16:36 53.87915 27.68949 666 ft 0 kts 169°
2026-04-17 16:36 53.91863 27.70832 769 ft 0 kts 289°